www.pogodaiklimat.ru
Время
(UTC), дата
07 23.02
08 23.02
09 23.02
10 23.02
11 23.02
12 23.02
13 23.02
14 23.02
15 23.02
16 23.02
17 23.02
18 23.02
19 23.02
20 23.02
21 23.02
22 23.02
23 23.02
00 24.02
01 24.02
02 24.02
03 24.02
04 24.02
05 24.02
06 24.02
07 24.02
08 24.02
09 24.02
10 24.02
11 24.02
12 24.02
13 24.02
14 24.02
15 24.02
16 24.02
17 24.02
18 24.02
19 24.02
20 24.02
21 24.02
22 24.02
23 24.02
00 25.02
01 25.02
02 25.02
03 25.02
04 25.02
05 25.02
06 25.02
07 25.02
08 25.02
09 25.02
10 25.02
11 25.02
12 25.02
13 25.02
14 25.02
15 25.02
16 25.02
17 25.02
18 25.02
19 25.02
20 25.02
21 25.02
22 25.02
23 25.02
00 26.02
01 26.02
02 26.02
03 26.02
04 26.02
05 26.02
06 26.02
07 26.02
08 26.02
09 26.02
10 26.02
11 26.02
12 26.02
13 26.02
14 26.02
15 26.02
16 26.02
17 26.02
18 26.02
19 26.02
20 26.02
21 26.02
22 26.02
23 26.02
00 27.02
01 27.02
02 27.02
03 27.02
04 27.02
05 27.02
06 27.02
07 27.02
08 27.02
09 27.02
10 27.02
11 27.02
12 27.02
13 27.02
14 27.02
15 27.02
16 27.02
17 27.02
18 27.02
19 27.02
20 27.02
21 27.02
22 27.02
23 27.02
00 28.02
01 28.02
02 28.02
03 28.02
04 28.02
05 28.02
06 28.02
07 28.02
08 28.02
09 28.02
10 28.02
11 28.02
12 28.02
13 28.02
14 28.02
15 28.02
16 28.02
17 28.02
18 28.02
19 28.02
20 28.02
21 28.02
22 28.02
23 28.02
00 1.03
01 1.03
02 1.03
03 1.03
04 1.03
05 1.03
06 1.03
07 1.03
08 1.03
09 1.03
10 1.03
11 1.03
12 1.03
13 1.03
14 1.03
15 1.03
16 1.03
17 1.03
18 1.03
19 1.03
20 1.03
21 1.03
22 1.03
23 1.03
00 2.03
01 2.03
02 2.03
03 2.03
04 2.03
05 2.03
06 2.03
07 2.03
Ветер
(напр.,м/с)
Видим. Явления Облачность Т
(С)
Тd
(С)
f
(%)
Тe
(С)
Тes
(С)
Комфортность P
(гПа)
Po
(гПа)
Тmin
(С)
Tmax
(С)
R
(мм)
R24
(мм)
S
(см)
З 2-3
{4}
<100 м слаб. переохл. морось (гололёд) {туман} 10/10 100 м
[St]
-2.4 -2.7 98 -7 -7 1033.3 1023.4
З 1-1
{3}
200 м переохл. туман 10/10 200 м
[St]
-1.8 -2.1 98 -4 -4 1033.8 1024.0
З 1-3
{3}
500 м туман [диам. сложн. отлож. мм] 8/8 300 м
[St]
-0.2 -0.5 98 -2 -1 1033.8 1024.1 0.0
штиль 0 2000 м в посл. час туман 3/3 300 м
[St]
+2.4 +2.1 98 +1 +8 1034.1 1024.4
СЗ 1 4000 м дымка ясно +6.5 +1.0 68 +6 +13 1033.8 1024.3
З 1-2
{2}
4000 м дымка {туман} [диам. сложн. отлож. 3 мм] ясно +8.9 +1.5 60 +9 +15 1033.3 1023.8 0
З 1 4000 м дымка ясно +10.3 +1.4 54 +10 +14 1033.1 1023.7
З 1 10 км ясно +11.6 +0.2 45 +12 +13 1032.6 1023.3
В 2-3
{3}
10 км ясно +9.4 +3.6 67 +8 +8 1032.8 1023.4
штиль 0 10 км 3/0
[Ci fib]
+6.2 +1.6 72 +6 +6 1033.3 1023.7
штиль 0 10 км 1/0
[Ci fib]
+2.7 0.0 82 +2 +2 1034.4 1024.7
СЗ 1-2
{2}
10 км ясно +2.5 +0.1 84 +1 +1 1034.5 1024.8 -2.5 +12.0 0.0 0
СЗ 1 10 км ясно +0.8 -1.2 86 -1 -1 1035.1 1025.4
З 2 10 км ясно +0.5 -0.6 92 -3 -3 1035.7 1026.0
СЗ 1-2
{2}
10 км ясно +1.5 -0.3 88 -0 -0 1035.8 1026.1
З 1 10 км 8/0
[Cs]
-0.2 -1.0 94 -2 -2 1036.2 1026.4
З 1 4000 м дымка 10/0
[Cs]
+0.3 -0.7 93 -2 -2 1036.1 1026.4
З 1-2
{2}
4000 м дымка 10/0
[Cs]
+0.2 -0.7 94 -2 -2 1036.7 1026.9 0
СЗ 1 4000 м дымка 10/0
[Cs]
-0.1 -0.9 94 -2 -2 1036.3 1026.5
С 1 4000 м дымка 5/0
[Cs]
-1.5 -1.9 97 -4 -4 1036.3 1026.5
штиль 0-1
{1}
4000 м дымка ясно -2.2 -2.5 98 -4 -4 1036.8 1027.0
СВ 1 4000 м дымка 8/0
[Cs]
-1.8 -2.1 98 -4 -4 1037.5 1027.6
штиль 0 <100 м туман ?/? -1.3 -1.5 99 -3 -3 1037.3 1027.5
СВ 1-1
{1}
50 м переохл. туман ?/? -1.0 -1.2 99 -3 -3 1037.3 1027.5 -3.0 +2.5 0.0 0
штиль 0 <100 м переохл. туман ?/? -0.7 -0.9 99 -2 -2 1036.9 1027.1
В 1 500 м туман 10/10 300 м
[St]
+0.3 +0.2 99 -2 -2 1037.1 1027.4
В 2-3
{3}
200 м туман 10/10 300 м
[St]
+0.8 +0.6 99 -3 -3 1037.1 1027.4
В 2 500 м туман 9/9 300 м
[St]
+2.1 +1.9 99 -1 -1 1036.8 1027.1
В 2 2000 м в посл. час туман 8/4 300 м
[St Ac As]
+5.7 +2.7 81 +3 +5 1036.5 1026.9
ЮВ 1-2
{3}
4000 м дымка {туман} [диам. изморози 1 мм] 9/5 300 м
[St Ac As]
+8.1 +2.9 70 +8 +9 1035.9 1026.5 0
В 1 4000 м дымка 10/6 300 м
[St Ac As]
+9.0 +3.2 67 +9 +9 1035.2 1025.8
В 1 4000 м дымка 10/8 300 м
[St Ac As]
+9.0 +3.6 69 +9 +9 1034.8 1025.3
В 1-2
{2}
4000 м дымка 10/6 300 м
[Sc Ac As]
+8.4 +4.2 75 +8 +8 1034.8 1025.3
СВ 1 4000 м дымка 10/6 600 м
[Sc Ac As]
+7.0 +3.8 80 +6 +6 1035.1 1025.6
С 1-1
{2}
4000 м в посл. час дождь 9/5 600 м
[Sc Ac As]
+6.0 +3.8 86 +5 +5 1035.2 1025.6
штиль 0
{2}
4000 м дымка {дождь} 9/6 600 м
[Sc Ac As]
+5.2 +3.4 88 +4 +4 1035.0 1025.4 -1.3 +9.3 0.0 0
штиль 0 4000 м дымка 8/6 600 м
[Sc Ac lent]
+5.0 +3.5 90 +4 +4 1034.9 1025.3
З 1 4000 м дымка 9/9 600 м
[Sc]
+4.4 +3.3 93 +3 +3 1035.0 1025.4
штиль 0-1
{2}
4000 м дымка 9/9 600 м
[Sc]
+3.8 +3.0 95 +3 +3 1035.4 1025.8
штиль 0 4000 м дымка 9/9 600 м
[Sc]
+3.3 +2.6 95 +2 +2 1035.3 1025.6
штиль 0 4000 м дымка 6/6 600 м
[Sc]
+2.3 +1.8 96 +1 +1 1035.3 1025.6
З 1-1
{1}
4000 м дымка 3/3 600 м
[Sc]
+1.4 +1.2 99 -1 -1 1035.2 1025.5 0
З 1 1000 м дымка 3/3 600 м
[Sc]
+2.0 +1.8 99 0 0 1034.7 1025.0
СЗ 1 1000 м дымка 4/1 600 м
[Sc Ac lent]
+0.4 +0.1 98 -2 -2 1034.6 1024.9
СЗ 1-2
{2}
1000 м дымка 4/0
[Ac trans]
+1.2 +1.0 99 -1 -1 1034.5 1024.8
З 1 500 м туман ясно +0.6 +0.4 99 -2 -2 1034.5 1024.8
штиль 0 <100 м туман ясно -0.1 -0.3 99 -2 -2 1034.6 1024.8
штиль 0-1
{1}
<50 м переохл. туман ?/? -0.8 -1.0 99 -2 -2 1035.0 1025.3 -1.3 +5.6
З 1 500 м туман 3/0
[Ci fib]
+1.4 +1.3 99 -1 +2 1035.3 1025.6
штиль 0 2000 м в посл. час туман 1/0
[Ci fib]
+5.7 +2.0 77 +5 +11 1035.2 1025.6
ЮЗ 1-2
{2}
4000 м дымка {туман} ясно +9.7 +3.6 66 +9 +17 1034.6 1025.2
ЮВ 1 4000 м дымка ясно +12.0 +5.6 65 +12 +20 1034.4 1025.0
ЮЗ 1 4000 м дымка ясно +14.6 +5.7 55 +15 +23 1033.6 1024.4
Ю 1-2
{3}
4000 м дымка {туман} 3/0
[Ci fib]
+16.1 +6.1 51 +17 +23 1032.6 1023.4 0
Ю 2 10 км 1/0
[Ci fib]
+17.7 +6.1 46 +18 +21 1031.9 1022.8
З 1 10 км 3/0
[Ci fib]
+18.1 +5.9 45 +19 +21 1031.3 1022.2
В 1-2
{4}
10 км 6/0
[Cs]
+16.2 +7.8 57 +17 +17 1030.9 1021.7
В 1 10 км 5/0
[Cs]
+12.4 +7.6 73 +13 +13 1030.7 1021.4
СВ 1 10 км 8/0
[Cs]
+8.9 +6.5 85 +8 +8 1030.8 1021.4
штиль 0-1
{2}
10 км 6/0
[Cs]
+7.9 +6.1 88 +7 +7 1030.7 1021.3 -0.8 +18.4 0
З 1 10 км 4/0
[Cs]
+5.9 +5.3 96 +5 +5 1030.7 1021.2
штиль 0 10 км ясно +4.7 +3.8 94 +4 +4 1030.8 1021.3
З 1-1
{1}
10 км ясно +4.0 +3.5 97 +2 +2 1030.8 1021.2
штиль 0 10 км ясно +2.7 +2.3 97 +1 +1 1030.7 1021.1
СЗ 1 10 км ясно +2.8 +2.5 98 +1 +1 1030.4 1020.8
штиль 0-1
{1}
2000 м дымка ясно +1.8 +1.5 98 +1 +1 1030.1 1020.5 0
штиль 0 4000 м дымка 4/0
[Cs]
+1.2 +1.0 99 -0 -0 1029.4 1019.7
С 1 4000 м дымка 6/0
[Cs]
+1.3 +1.1 99 -1 -1 1028.6 1018.9
штиль 0-1
{2}
4000 м дымка 6/0
[Cs]
+0.7 +0.4 98 -1 -1 1028.6 1018.9
штиль 0 4000 м дымка 6/0
[Cs]
-0.3 -0.5 99 -2 -2 1028.5 1018.8
штиль 0 1000 м дымка 10/0
[Cs]
-0.6 -0.9 98 -2 -2 1028.0 1018.3
СЗ 1-1
{1}
500 м туман ясно +0.3 +0.1 99 -2 -1 1028.1 1018.4 -0.6 +7.9 0
В 1 500 м туман ясно +2.8 +2.5 98 +1 +4 1028.1 1018.5
ЮВ 1 2000 м в посл. час туман ясно +6.8 +4.5 85 +6 +12 1027.8 1018.3
ЮВ 1-2
{2}
4000 м дымка {туман} ясно +10.1 +5.6 74 +10 +17 1027.3 1018.0
ЮЗ 1 4000 м дымка ясно +13.6 +4.6 54 +14 +23 1027.0 1017.7
ЮЗ 1 4000 м дымка ясно +16.1 +4.5 46 +17 +25 1025.8 1016.6
Ю 1-2
{3}
10 км {туман} ясно +18.0 +3.7 39 +19 +26 1024.8 1015.8 0
СВ 2-4
{4}
10 км ясно +18.7 +4.8 40 +20 +23 1024.0 1015.0
СВ 3 10 км ясно +18.2 +2.2 34 +18 +20 1023.6 1014.5
СВ 2-3
{4}
10 км ясно +17.1 +3.4 40 +17 +18 1023.0 1014.0
СВ 1 10 км ясно +14.4 +4.8 52 +15 +15 1022.8 1013.6
штиль 0 10 км ясно +8.2 +3.0 70 +8 +8 1022.9 1013.5
З 1-1
{2}
10 км ясно +7.3 +3.7 78 +7 +7 1022.7 1013.3 +0.1 +19.0 0
З 1 10 км ясно +6.0 +3.1 82 +5 +5 1022.5 1013.1
СЗ 1 10 км ясно +5.2 +2.5 83 +4 +4 1022.3 1012.8
З 1-1
{1}
10 км ясно +3.6 +1.4 86 +2 +2 1022.1 1012.6
З 1 10 км ясно +3.4 +1.7 89 +2 +2 1021.7 1012.2
З 1-2
{3}
10 км ясно +3.3 +2.0 91 +2 +2 1021.5 1012.0
З 2-3
{3}
10 км ясно +4.3 +2.6 89 +1 +1 1021.0 1011.5 0
З 1 10 км ясно +2.9 +1.9 93 +1 +1 1020.7 1011.1
СЗ 2 10 км ясно +2.9 +1.7 92 -0 -0 1020.2 1010.7
З 2-3
{3}
10 км ясно +3.4 +2.2 92 0 0 1019.9 1010.4
З 2 10 км ясно +1.3 +0.2 92 -2 -2 1021.0 1011.4
З 2 4000 м дымка 3/3 300 м
[St]
+3.6 +1.7 87 +1 +1 1022.4 1012.9
ЮЗ 1-3
{6}
4000 м дымка 6/6 300 м
[Sc]
+4.9 +2.4 84 +4 +4 1023.6 1014.1 +1.3 +8.5 0
СЗ 2 4000 м дымка 10/5 300 м
[Sc Ac As]
+5.6 +2.5 80 +3 +4 1024.1 1014.6
СЗ 3 10 км 9/6 300 м
[Sc Ac As]
+5.7 +2.2 78 +3 +3 1024.0 1014.5
СЗ 2-6
{8}
10 км 10/10 300 м
[Sc]
+5.7 +2.4 79 +3 +3 1024.1 1014.6
СЗ 3-6
{8}
10 км слаб. дождь 10/8 300 м
[Sc Ac As]
+4.8 +2.8 87 +1 +2 1024.8 1015.3
СЗ 4 4000 м слаб. дождь 10/8 300 м
[St As op]
+3.9 +2.7 92 -1 -1 1025.1 1015.6 1
СЗ 3-6
{8}
4000 м слаб. дождь 10/6 300 м
[Frnb As op]
+3.7 +2.7 93 -0 0 1025.2 1015.7 3 0
СЗ 2 4000 м в посл. час дождь 10/6 300 м
[Sc Ac As]
+4.4 +3.2 92 +2 +2 1024.9 1015.4 0.7
З 2 10 км 10/10 300 м
[Sc]
+5.0 +3.0 87 +2 +2 1024.9 1015.4
СЗ 3 н/о {дождь} н/о +5.5 +2.4 80 +2 +2 1024.8 1015.3 0.7
СЗ 2 10 км 9/9 600 м
[Sc]
+5.8 +2.7 80 +3 +3 1024.8 1015.4
СЗ 3 10 км 10/10 600 м
[Sc]
+5.8 +2.3 78 +3 +3 1025.3 1015.9
СЗ 2-6
{7}
10 км {дождь} 10/10 600 м
[Sc]
+5.6 +2.4 80 +3 +3 1026.1 1016.6 +3.7 +6.2 4 0
СЗ 2 10 км 3/3 600 м
[Sc]
+4.7 +2.0 83 +2 +2 1026.4 1016.9
СЗ 2 10 км 8/8 600 м
[Sc]
+4.2 +1.6 83 +1 +1 1026.9 1017.4
СЗ 3-5
{5}
10 км 10/10 600 м
[Sc]
+4.3 +1.1 80 +1 +1 1027.1 1017.5
СЗ 2 10 км 10/10 1000 м
[Sc]
+4.6 +1.0 77 +2 +2 1027.1 1017.6
З 2 10 км 10/10 600 м
[Sc]
+4.4 +1.0 79 +2 +2 1027.3 1017.8
З 2-4
{6}
10 км 10/10 600 м
[Sc]
+4.2 +1.1 80 +2 +2 1027.6 1018.0 0
СЗ 3 10 км 10/10 600 м
[Sc]
+4.4 +0.8 77 +1 +1 1027.6 1018.0
СЗ 2 10 км 10/10 600 м
[Sc]
+4.3 +0.6 77 +2 +2 1027.7 1018.1
З 2-5
{6}
10 км 10/10 600 м
[Sc]
+4.1 +0.6 78 +1 +1 1027.8 1018.3
СЗ 2 10 км 10/10 600 м
[Sc]
+4.1 +0.8 79 +1 +1 1028.4 1018.8
СЗ 3 10 км 10/10 600 м
[Sc]
+4.0 +0.9 80 0 0 1028.6 1019.1
СЗ 3-7
{7}
10 км 9/9 600 м
[Sc]
+4.1 +0.6 78 +1 +1 1028.9 1019.4 +3.8 +5.6 3.8 0
СЗ 3 10 км 10/10 600 м
[Sc]
+4.0 +0.2 76 0 0 1029.3 1019.7
СЗ 4 10 км 10/10 600 м
[Sc]
+4.1 -0.3 73 -0 -0 1029.6 1020.1
СЗ 5-10
{11}
10 км 10/10 300 м
[Sc]
+3.8 -0.8 72 -1 -1 1029.9 1020.3
СЗ 4 10 км 9/6 300 м
[Cu Sc Ac As]
+5.3 -0.1 68 +2 +3 1029.7 1020.1
СЗ 4 10 км 8/5 600 м
[Cu Sc Ci fib]
+6.5 -0.9 59 +3 +5 1029.6 1020.1
СЗ 3-7
{10}
10 км 9/6 600 м
[Cu Sc Ci fib]
+5.5 -1.6 60 +3 +4 1029.5 1020.0 0
С 3 10 км 9/5 600 м
[Cu med, cong Cs]
+5.9 -1.7 58 +3 +4 1028.9 1019.4
СЗ 4 10 км 8/4 600 м
[Cu med, cong Ac lent Cs]
+7.5 -2.1 51 +5 +5 1028.2 1018.8
СЗ 4-9
{11}
10 км 6/3 600 м
[Cu hum Ac lent Cs]
+7.4 -2.9 48 +5 +5 1027.6 1018.2
СЗ 3 10 км 9/3 600 м
[Sc diur, vesp Ac As Cs]
+6.5 -2.0 55 +4 +4 1027.5 1018.0
СЗ 3 10 км 10/5 600 м
[Sc Ac As]
+5.9 -1.9 57 +3 +3 1027.7 1018.2
СЗ 2-6
{8}
10 км 10/6 600 м
[Sc Ac As]
+5.4 -1.5 61 +3 +3 1027.4 1017.9 +3.8 +8.2 0
СЗ 3 10 км 10/6 600 м
[Sc Ac As]
+5.0 -1.6 62 +2 +2 1027.4 1017.9
СЗ 1 10 км 10/10 600 м
[Sc]
+4.3 -1.1 68 +3 +3 1027.4 1017.8
З 1-4
{6}
10 км слаб. дождь 10/8 600 м
[Sc Ac As]
+3.7 -0.2 76 +2 +2 1027.7 1018.2 0.0
штиль 0 10 км слаб. дождь 10/8 600 м
[Sc As op]
+2.8 +1.2 89 +2 +2 1026.8 1017.2 0.2
штиль 0 10 км слаб. дождь 10/8 600 м
[Sc As op]
+3.2 +1.4 88 +2 +2 1026.6 1017.0 0.3
З 3-6
{6}
10 км слаб. дождь 10/8 600 м
[Sc As op]
+3.3 +1.6 89 -1 -1 1026.5 1017.0 1 0
СЗ 4 4000 м слаб. дождь 10/0
[As op]
+3.1 +1.8 91 -2 -2 1026.5 1016.9 0.8
СЗ 3 4000 м слаб. дождь 10/5 300 м
[Frnb As op]
+2.7 +1.6 92 -2 -2 1026.3 1016.8 0.6
СЗ 3-8
{8}
4000 м слаб. дождь 10/6 300 м
[Frnb As op]
+2.6 +1.5 92 -2 -2 1026.3 1016.8 2
СЗ 3 4000 м слаб. дождь 10/6 300 м
[Frnb As op]
+2.7 +1.6 92 -2 -2 1026.5 1017.0 0.2
СЗ 3 4000 м дождь {морось} 10/8 300 м
[St As op]
+2.6 +1.4 92 -2 -2 1027.1 1017.5 0.1
СЗ 3-6
{9}
4000 м в посл. час морось {дождь} 10/6 300 м
[St Ac As]
+2.3 +1.1 92 -2 -2 1027.9 1018.3 +2.1 +5.4 3 3.0 0
СЗ 2 4000 м дымка 10/8 300 м
[St Ac As]
+2.7 +1.4 91 -1 -0 1028.9 1019.3
СЗ 2 4000 м дымка 10/10 300 м
[St]
+3.1 +1.5 89 0 0 1029.6 1020.0
СЗ 2-4
{5}
4000 м дымка 10/10 300 м
[St]
+3.9 +1.9 87 +1 +1 1030.2 1020.6
С 2 4000 м дымка 10/10 300 м
[St]
+4.3 +1.6 83 +2 +2 1030.8 1021.2
С 3 4000 м дымка 10/10 300 м
[St]
+4.2 +1.1 80 +1 +1 1031.4 1021.8
СЗ 2-5
{6}
10 км 10/10 300 м
[Sc]
+4.0 +1.3 83 +1 +1 1031.7 1022.1 0
С 4 10 км 10/10 300 м
[Sc]
+4.9 0.0 71 +1 +1 1032.0 1022.4
С 3 10 км 10/10 300 м
[Sc]
+4.5 0.0 73 +1 +1 1032.4 1022.8
С 2-5
{7}
10 км 10/10 600 м
[Sc]
+4.4 -0.1 73 +2 +2 1032.7 1023.1
С 2 10 км 10/10 600 м
[Sc]
+3.8 -0.6 73 +1 +1 1033.3 1023.7
С 2 10 км 10/10 600 м
[Sc]
+3.4 -0.5 76 +1 +1 1034.1 1024.4
СЗ 1-2
{3}
10 км 10/10 600 м
[Sc]
+3.3 -0.4 77 +2 +2 1034.5 1024.9 +2.3 +4.9 0
З 1 10 км 10/10 300 м
[St]
+3.1 0.0 80 +2 +2 1034.9 1025.3
СЗ 1-2
{3}
10 км слаб. морось 10/10 300 м
[St]
+2.9 +0.1 82 +1 +1 1035.5 1025.8
С 1-1
{2}
10 км слаб. морось 10/10 300 м
[St]
+2.4 +0.2 85 +1 +1 1035.5 1025.8 0.0
СЗ 1-1
{2}
10 км в посл. час морось 10/10 300 м
[St]
+2.7 +0.2 84 +1 +1 1035.4 1025.8
штиль 0-1
{1}
10 км слаб. морось 10/10 300 м
[St]
+2.2 +0.6 89 +1 +1 1035.5 1025.8
З 1-1
{1}
10 км слаб. морось 10/8 300 м
[St Ac As]
+2.3 +0.6 89 +1 +1 1035.3 1025.6 0.0 0
З 1-2
{2}
10 км в посл. час морось 10/8 300 м
[St Ac As]
+2.3 +0.7 89 +1 +1 1034.8 1025.1
З 1 10 км 10/10 300 м
[St]
+2.5 +0.7 88 +1 +1 1034.1 1024.4
СЗ 1-3
{3}
10 км {морось} 10/10 300 м
[St]
+2.7 +0.6 86 +1 +1 1033.9 1024.3 0.0
З 1 10 км 10/10 300 м
[St]
+2.7 +0.7 87 +1 +1 1033.7 1024.0
З 1 10 км 10/10 600 м
[Sc]
+2.6 +0.9 89 +1 +1 1033.5 1023.8
ЮЗ 1-2
{2}
10 км {морось} 3/0
[Ci fib]
+2.2 +0.7 90 0 +2 1033.2 1023.5 +1.9 +3.3 0.0 0.0 0
З 1 10 км 1/0
[Ci fib]
+4.2 +0.7 78 +3 +7 1033.1 1023.5
Местоположение метеостанции Яссы (Румыния): широта 47.17 долгота 27.63 высота над уровнем моря 104 м.
В архиве по умолчанию представлена погода в Яссы за последнюю неделю. Архивные данные за месяц целиком и за предыдущие месяцы, начиная с января 2011 года, Вы можете получить, выбрав интересующий диапазон дат из раскрывающегося списка и нажав кнопку "Найти!".
*Определитесь, кто Вы:
Внимание! Время в таблицах - всемирное. Для получения местного времени необходимо прибавить поправку, которая равна 2 ч.
Смотрите также архив погоды в соседних городах и на ближайших метеорологических станциях:
Партнеры нашего сайта:      
Пояснения к столбцам:
  • Ветер - указаны скорость ветра в м/с - средняя за 10 мин, порывы в срок и между сроками (в фигурных скобках) и направление, откуда дует ветер: С - северный,
  • СВ - северо-восточный, В - восточный, ЮВ - юго-восточный, Ю - южный, ЮЗ - юго-западный, З - западный, СЗ - северо-западный.
  • Видимость - горизонтальная дальность видимости в метрах или километрах. При видимости от 1 до 10 км при отсутствии осадков обычно наблюдается дымка, при ухудшении видимости до 1 км и менее - туман. В сухую погоду видимость может ухудшаться дымом, пылью или мглою.
  • Явления - указаны атмосферные явления, наблюдавшиеся в срок или в последний час перед сроком; фигурными скобками обозначены явления, наблюдавшиеся между сроками (за 1-3 часа до срока); квадратными скобками обозначены град или гололедные отложения с указанием их диаметра в мм.
  • Облачность - указаны через наклонную черту общая и нижняя облачность в баллах и высота нижней границы облаков в метрах; квадратными скобками обозначены формы облаков: Ci - перистые, Cs - перисто-слоистые, Cc - перисто-кучевые, Ac - высококучевые, As - высокослоистые, Sc - слоисто-кучевые, Ns - слоисто-дождевые, Cu - кучевые, Cb - кучево-дождевые. Подробнее классификацию облаков см. в Атласе облаков (PDF).
  • T - Температура воздуха - температура, измеренная на высоте 2 м над землей.
  • Td - Температура точки росы - температура, при понижении до которой содержащийся в воздухе водяной пар достигнет насыщения.
  • f - Относительная влажность воздуха - влажноcть воздуха, измеренная на высоте 2 м над землей.
  • Te - Эффективная температура - температура, которую ощущает одетый по сезону человек в тени. Характеристика душности погоды. При расчете учитывается влияние влажности воздуха и скорости ветра на теплоощущения человека.
  • Tes - Эффективная температура на солнце - температура, которую ощущает человек, с поправкой на солнечный нагрев. Характеристика знойности погоды. Зависит от высоты солнца над горизонтом, облачности и скорости ветра. Ночью, в пасмурную погоду, а также при ветре 12 м/с и более поправка равна нулю.
  • P - Атмосферное давление - приведенное к уровню моря атмосферное давление.
  • Po - Атмосферное давление - измеренное на уровне метеостанции атмосферное давление.
  • Tmin - Минимальная температура - минимум температуры воздуха на высоте 2 м над землей.
  • Tmax - Максимальная температура - максимум температуры воздуха на высоте 2 м над землей.
  • R - Количество осадков - Количество выпавших осадков за период времени, мм. При наведении курсора мыши на число - период времени, за который выпало указанное количество осадков.
  • R24 - Количество осадков - Количество выпавших осадков за 24 часа, мм.
  • S - Снежный покров - Высота снежного покрова, см. При наведении курсора мыши на число - состояние снежного покрова и степень покрытия местности в баллах.